Observations for Trim Patrick St
| Time | AQI | Temp °C | Hum % | Pres Pa | CO μg/m³ | H₂S μg/m³ | NO μg/m³ | NO₂ μg/m³ | O₃ μg/m³ | SO₂ μg/m³ | PM1 μg/m³ | PM2.5 μg/m³ | PM10 μg/m³ |
|---|---|---|---|---|---|---|---|---|---|---|---|---|---|
| Thursday 6 August 2026 | |||||||||||||
| 23:16 | 2 | 15.5 | 65 | 75,815 | 0.07 | 7.45 | 2.87 | 29.93 | 35.18 | 0 | 2 | 6.17 | 6.79 |
| 23:15 | 2 | 15.5 | 65 | 75,739 | 0.07 | 7.08 | 2.81 | 32.46 | 29.19 | 0 | 2.86 | 6.19 | 6.81 |
| 23:14 | 2 | 15.6 | 65 | 75,652 | 0.06 | 7.24 | 2.86 | 24.02 | 38.1 | 0 | 2 | 6.92 | 7.61 |
| 23:13 | 2 | 15.6 | 65 | 75,576 | 0.06 | 7.94 | 2.91 | 28.49 | 37.41 | 0 | 2 | 5.46 | 6.01 |
| 23:12 | 2 | 15.6 | 65 | 75,493 | 0.06 | 7.26 | 2.91 | 24.46 | 38.86 | 0 | 2 | 5.46 | 6.01 |
| 23:11 | 2 | 15.6 | 65 | 75,416 | 0.06 | 7.86 | 2.88 | 32.36 | 32.25 | 0 | 2 | 6.2 | 6.82 |
| 23:10 | 2 | 15.6 | 65 | 75,316 | 0.05 | 7.47 | 2.86 | 26.22 | 39.98 | 0 | 2 | 5.48 | 6.03 |
| 23:08 | 2 | 15.7 | 65 | 75,137 | 0.05 | 7.19 | 2.5 | 22.42 | 40.17 | 0 | 2 | 5.49 | 6.04 |
| 23:07 | 2 | 15.7 | 64 | 75,061 | 0.06 | 8.31 | 2.33 | 29.14 | 39.63 | 0 | 2 | 6.23 | 6.85 |
| 23:06 | 2 | 15.7 | 64 | 74,968 | 0.03 | 7.37 | 2.42 | 19.15 | 41.21 | 0 | 2 | 6.24 | 6.87 |
| 23:05 | 2 | 15.8 | 64 | 74,886 | 0.05 | 8.83 | 2.32 | 32.03 | 37.3 | 0 | 2.86 | 7 | 7.7 |
| 23:04 | 2 | 15.8 | 64 | 74,793 | 0.03 | 6.93 | 2.62 | 23.12 | 38.96 | 0 | 2 | 5.54 | 6.09 |
| 23:03 | 2 | 15.8 | 64 | 74,727 | 0.05 | 6.87 | 2.57 | 21.71 | 38.09 | 0 | 2.86 | 7.01 | 7.71 |
| 23:02 | 2 | 15.9 | 64 | 74,675 | 0.05 | 7.89 | 2.41 | 23.04 | 36.13 | 0 | 2.86 | 7 | 7.71 |
| 23:01 | 2 | 15.9 | 64 | 74,621 | 0.06 | 7.94 | 2.2 | 25.25 | 35.32 | 0 | 2.86 | 7.02 | 7.72 |
| 23:00 | 2 | 15.9 | 64 | 74,573 | 0.07 | 8.18 | 1.87 | 31.89 | 28.03 | 0 | 3.71 | 8.49 | 9.34 |
| 22:59 | 2 | 15.9 | 64 | 74,536 | 0.13 | 7.68 | 1.65 | 31.88 | 28.02 | 0 | 3.71 | 7.02 | 7.73 |
| 22:58 | 2 | 16 | 64 | 74,503 | 0.05 | 7.29 | 1.9 | 24.68 | 36.42 | 0 | 3.71 | 7.77 | 8.54 |
| 22:53 | 2 | 16.2 | 63 | 74,394 | 0.03 | 6.62 | 2.67 | 19.84 | 40.58 | 0.13 | 2 | 5.6 | 6.16 |
| 22:52 | 2 | 16.2 | 63 | 74,371 | 0.03 | 6.3 | 2.49 | 18.91 | 43.61 | 0.01 | 2 | 7.07 | 7.78 |